Regional Weather Roundup
Issued by NWS

Home | Current Version | Previous Version | Text Only | Print | Product List | Glossary On
Versions: 1 2 3 4 5 6 7 8 9 10 11 12 13 14 15 16 17 18 19 20 21 22 23 24 25 26 27 28 29 30 31 32 33 34 35 36 37 38 39 40 41 42 43 44 45 46 47 48 49 50
000
ASUS42 KTBW 241810
RWRFL
FLORIDA REGIONAL WEATHER ROUNDUP
NATIONAL WEATHER SERVICE TAMPA BAY RUSKIN FL
100 PM EST MON NOV 24 2014

NOTE: "FAIR" INDICATES FEW OR NO CLOUDS BELOW 12,000 FEET WITH NO
SIGNIFICANT WEATHER AND/OR OBSTRUCTIONS TO VISIBILITY.


FLZ001>010-012>015-112-114-115-241900-
PANHANDLE FLORIDA

CITY           SKY/WX    TMP DP  RH WIND       PRES   REMARKS
PENSACOLA      SUNNY     80  61  52 W8        29.81F
PENSACOLA NAS  PTSUNNY   70  63  78 SW12      29.82F
MILTON NAS     MOSUNNY   80  60  50 NW12      29.81F
CRESTVIEW      SUNNY     78  62  57 S6        29.83F
DUKE FIELD     MOSUNNY   79  59  50 W6        29.82F
VALPARAISO     MOSUNNY   75  67  76 SW9       29.84S
MARY ESTHER    SUNNY     73  63  71 W10       29.83F
TRI COUNTY     CLOUDY    75  67  76 MISG      29.84F
PANAMA CITY    MOCLDY    74  65  73 SW10      29.84F
APALACHICOLA   LGT RAIN  73  69  87 SW5       29.87F FOG

STATION/POSITION SKY/WX   TEMP    WIND        PRES    WAVE   SWELL
                          AIR SEA DIR/SP/G            HT/PER HT/PER
                          (F)     (DEG/KT/KT) (MB)    (FT/S) (FT/S)
30.1N   87.6W              66 69  260/  8/ 10 1009.8F   4/ 8   3/ 8
29.2N   88.2W              71 72  300/ 10/ 12 1011.7    4/ 7   5/ 7
28.7N   86.0W              76 77  270/ 10/ 14 1011.8    5/ 7   5/ 7
PANAMA CITY BEAC           69 65  180/  4/  4 1011.0S
CAPE SAN BLAS    NOT AVBL
TOWER C                    72     260/ 12/ 15 1011.2F
28.5N   84.5W              75 72  190/ 12/ 14 1011.7F   4/ 7   3/ 7

$$
FLZ011-016>038-118-127-128-134-139-239-241900-
NORTH FLORIDA

CITY           SKY/WX    TMP DP  RH WIND       PRES   REMARKS
MARIANNA       HVY RAIN  75  68  78 W6        29.84F
TALLAHASSEE    LGT RAIN  72  68  87 SE5       29.86F
PERRY          CLOUDY    74  72  92 S10       29.88F
CROSS CITY       N/A     77  72  84 S14       29.90F
LAKE CITY      CLOUDY    77  72  83 SW13G18   29.91F
GAINESVILLE    PTSUNNY   82  71  69 SW16G22   29.90F
MAYPORT NAS    PTSUNNY   82  71  69 SW14G21   29.89F
JACKSONVILLE   CLOUDY    81  72  74 SW12      29.88F
JAX NAS        PTSUNNY   86  69  56 S17G24    29.89F
JAX CRAIG      PTSUNNY   84  70  62 SW16G28   29.88F
JAX CECIL      PTSUNNY   84  70  61 S17G26    29.89F
FERNANDINA BEA FAIR      86  72  62 SW13      29.87F
ST AUGUSTINE   PTSUNNY   83  71  67 SW12G20   29.91F

STATION/POSITION SKY/WX   TEMP    WIND        PRES    WAVE   SWELL
                          AIR SEA DIR/SP/G            HT/PER HT/PER
                          (F)     (DEG/KT/KT) (MB)    (FT/S) (FT/S)
SHELL POINT                64     240/  8/ 12   N/A
KEATON BEACH               67     160/ 17/ 19 1012.1F
CEDAR KEY                  67     180/ 14/ 17 1014.1F
FERNANDINA                 76 61  210/ 12/ 18 1011.3F
30.7N   81.3W                 62                N/A     4/ 9   2/11
MAYPORT                    79 63  230/ 13/ 19   N/A
31.4N   80.9W              67 64  200/ 14/ 16 1011.7F   5/ 9   3/ 9
ST AUGUSTINE               81     220/ 12/ 16 1013.3F

$$
FLZ040-043>046-052-053-057-058-063-144-241900-
INTERIOR CENTRAL FLORIDA

CITY           SKY/WX    TMP DP  RH WIND       PRES   REMARKS
OCALA          PTSUNNY   86  70  58 S18G25    29.92F
THE VILLAGES     N/A     86  72  62 S10       29.83F
LEESBURG       MOSUNNY   86  70  58 SW9       29.93F
SANFORD        MOSUNNY   84  71  65 SW12      29.93F
ORLANDO EXEC   MOSUNNY   85  74  69 S9        29.94F
ORLANDO INTL   PTSUNNY   84  72  67 S14       29.94F
KISSIMMEE      PTSUNNY   84  73  70 S12       29.95F
WINTER HAVEN   MOSUNNY   85  70  60 SW12      29.96F
LAKELAND       PTSUNNY   84  72  65 SW12      29.95F
BARTOW         PTSUNNY   84  70  61 S13       29.95F
OKEECHOBEE     SUNNY    N/A N/A N/A S12       29.96F

$$
FLZ041-047-054-059-064-141-147-241900-
EAST CENTRAL FLORIDA

CITY           SKY/WX    TMP DP  RH WIND       PRES   REMARKS
ORMOND BEACH   MOSUNNY   82  70  65 SW12G20   29.93F
DAYTONA BEACH  MOSUNNY   83  69  62 SW14      29.94F
DELAND         MOCLDY    84  72  65 SW10      29.94F
NEW SMYRNA BEA MOSUNNY   84  70  61 SW13G22   29.95F
JFK SPACE CTR  MOSUNNY   84  72  66 S14       29.94F
TITUSVILLE     PTSUNNY   84  72  65 SW14      29.94F
CAPE CANAVERAL SUNNY     83  73  72 S13       29.93F
PATRICK AFB    SUNNY     85  74  68 S14       29.94F
MELBOURNE      MOSUNNY   86  73  65 S15       29.95F
VERO BEACH     MOSUNNY   85  73  67 SW12      29.95F
FT PIERCE      MOSUNNY   87  71  58 SW12      29.95F
STUART         PTSUNNY   86  72  62 S12G20    29.97

STATION/POSITION SKY/WX   TEMP    WIND        PRES    WAVE   SWELL
                          AIR SEA DIR/SP/G            HT/PER HT/PER
                          (F)     (DEG/KT/KT) (MB)    (FT/S) (FT/S)
28.5N   80.2W              76 78  210/ 12/ 14 1015.0F
28.9N   78.5W              79 78  180/ 16/ 19 1014.9F   8/10   7/10
TRIDENT PIER               78 70  160/  6/  9 1013.9F
28.4N   80.5W                 70                N/A     3/10   2/11
27.6N   80.2W                 78                N/A     3/ 9   2/11

$$
FLZ050-056-061-142-242-148-248-149-249-151-251-155-255-
160-260-241900-
WEST CENTRAL FLORIDA

CITY           SKY/WX    TMP DP  RH WIND       PRES   REMARKS
CRYSTAL RIVER  MOCLDY    81  72  74 SW6       29.93F
INVERNESS      MOCLDY    82  70  65 SW8       29.93F
BROOKSVILLE    MOSUNNY   84  72  67 S12       29.94F
ZEPHYRHILLS    FAIR      84  68  58 SW13      29.95F
CLEARWATER     MOSUNNY   83  73  72 SW14      29.94F
TAMPA INTL     MOSUNNY   79  72  79 S14       29.94F
TAMPA EXEC     MOSUNNY   86  72  62 SW14      29.95F
PLANT CITY     PTSUNNY   88  68  51 SW14G20   29.96F
MACDILL AFB    SUNNY     81  75  81 SW13      29.95F
PETER O KNIGHT SUNNY     82  73  74 SW10G17   29.95F
ST PETERSBURG  SUNNY     79  72  79 SW12      29.93F
SARASOTA       PTSUNNY   76  73  91 S14       29.94F
VENICE         MOCLDY    75  73  94 S14G21    29.96F FOG

STATION/POSITION SKY/WX   TEMP    WIND        PRES    WAVE   SWELL
                          AIR SEA DIR/SP/G            HT/PER HT/PER
                          (F)     (DEG/KT/KT) (MB)    (FT/S) (FT/S)
CEDAR KEY                  67     180/ 14/ 17 1014.1F
28.5N   84.5W              75 72  190/ 12/ 14 1011.7F   4/ 7   3/ 7
27.3N   84.3W                 79                N/A     4/ 6
CLEARWATER BEACH           73 65  180/ 15/ 18 1013.7F
MIDDLE TAMPA BAY           74     230/  7/  8 1014.4F
VENICE                     70 69  170/  9/ 10 1014.0F

$$
FLZ066-069-070-075>078-162-262-165-265-241900-
SOUTHWEST FLORIDA AND KEYS

CITY           SKY/WX    TMP DP  RH WIND       PRES   REMARKS
PUNTA GORDA    MOSUNNY   86  72  62 S14       29.97F
FT MYERS       SUNNY     84  72  67 S14       29.94F
SOUTHWEST INTL SUNNY     85  71  63 SW16      29.95F
NAPLES         SUNNY     84  70  62 S13       29.95F
MARCO ISLAND   PTCLDY    82  73  74 SE13      29.96F
MARATHON       SUNNY     84  78  82 VRB5      29.97F HX  95
KEY WEST NAS   MOSUNNY   83  74  74 SE9       29.97F
KEY WEST INTL  SUNNY     82  74  76 SE9       29.98F

STATION/POSITION SKY/WX   TEMP    WIND        PRES    WAVE   SWELL
                          AIR SEA DIR/SP/G            HT/PER HT/PER
                          (F)     (DEG/KT/KT) (MB)    (FT/S) (FT/S)
VENICE                     70 69  170/  9/ 10 1014.0F
NAPLES                            180/  2/  4 1015.1F
26.0N   85.6W              80 80  180/ 14/ 16 1012.4F   4/ 6   2/11
DRY TORTUGAS               78     150/  8/  9 1015.3F
NW FL BAY                  77     140/  4/  5 1016.4F
SAND KEY                   79     130/  9/ 11 1015.1F
SOMBRERO KEY               82     130/  8/  8 1015.6F
LONG KEY                   84 77   CALM  /  2 1016.8F
MOLASSES REEF              80 79  180/  8/  9 1015.2F

$$
FLZ067-068-071>074-168-172>174-241900-
SOUTHEAST FLORIDA

CITY           SKY/WX    TMP DP  RH WIND       PRES   REMARKS
W PALM BEACH   MOSUNNY   85  76  74 SE17      29.95F
FT LAUDER-EXEC MOSUNNY   85  75  72 SE10      29.96F
FT LAUDERDALE  MOSUNNY   87  76  69 S14       29.96F HX  97
POMPANO BEACH  SUNNY     85  76  74 S14G23    29.97F
PEMBROKE PINES MOSUNNY   88  74  63 SE15G22   29.97F HX  96
OPA LOCKA        N/A     88  73  61 S16       29.97F HX  95
MIAMI          PTSUNNY   86  74  67 SE13      29.97F
WEST KENDALL   PTSUNNY   87  72  60 S8        29.97F
HOMESTEAD      MOSUNNY   86  74  66 SE10      29.97F

STATION/POSITION SKY/WX   TEMP    WIND        PRES    WAVE   SWELL
                          AIR SEA DIR/SP/G            HT/PER HT/PER
                          (F)     (DEG/KT/KT) (MB)    (FT/S) (FT/S)
PORT EVERGLADES            82     160/  8/ 10 1015.0
VIRGINIA KEY               80 76  180/  8/  9 1015.8F
LAKE WORTH                 80 79  170/ 16/ 17 1014.6F


USA.gov is the U.S. government's official web portal to all federal, state and local government web resources and services.